Apellis — 3FJT2 — position and weather

sailwx.info

Track history (hours):
 
Tides and Currents Weather Stations Pressure Air Temp Water Temp Dewpoint Dewpoint Depression Visibility Wind Speed Wind Dir Waves Ship Positions

Apellis

Last reported at 2014-Oct-20 21:33 UTC. Time now 2014-Oct-21 02:18 UTC.
Position N 54°30' E 011°34'.

Length 178 m; draft 9.4 m.

Type: Cargo ship. MMSI: 353847000.

Date/timePositionNaut miles runAvg speedWind from/ knotsBaromVisibWave heightAir tempDewpointWater temp
2014-Oct-20 21:33N 54°30' E 011°34'1111.2
2014-Oct-20 20:32N 54°26' E 011°52'1010.7
2014-Oct-20 19:33N 54°28' E 012°10'6811.3
2014-Oct-20 13:33N 55°01' E 013°52'1111.3
2014-Oct-20 12:33N 55°07' E 014°08'1212.1
2014-Oct-20 11:33N 55°17' E 014°22'1212.0
2014-Oct-20 10:33N 55°26' E 014°35'1211.9
2014-Oct-20 09:33N 55°32' E 014°53'1211.6
2014-Oct-20 08:33N 55°38' E 015°11'1211.7
2014-Oct-20 07:29N 55°44' E 015°30'2311.9
2014-Oct-20 05:33N 55°56' E 016°05'1212.0
2014-Oct-20 04:33N 56°02' E 016°24'  
Track history (hours):
 
Tides and Currents Weather Stations Pressure Air Temp Water Temp Dewpoint Dewpoint Depression Visibility Wind Speed Wind Dir Waves Ship Positions

Apellis

Last reported at 2014-Oct-20 21:33 UTC. Time now 2014-Oct-21 02:18 UTC.
Position N 54°30' E 011°34'.

Length 178 m; draft 9.4 m.

Type: Cargo ship. MMSI: 353847000.

Date/timePositionNaut miles runAvg speedWind from/ knotsBaromVisibWave heightAir tempDewpointWater temp
2014-Oct-20 21:33N 54°30' E 011°34'1111.2
2014-Oct-20 20:32N 54°26' E 011°52'1010.7
2014-Oct-20 19:33N 54°28' E 012°10'6811.3
2014-Oct-20 13:33N 55°01' E 013°52'1111.3
2014-Oct-20 12:33N 55°07' E 014°08'1212.1
2014-Oct-20 11:33N 55°17' E 014°22'1212.0
2014-Oct-20 10:33N 55°26' E 014°35'1211.9
2014-Oct-20 09:33N 55°32' E 014°53'1211.6
2014-Oct-20 08:33N 55°38' E 015°11'1211.7
2014-Oct-20 07:29N 55°44' E 015°30'2311.9
2014-Oct-20 05:33N 55°56' E 016°05'1212.0
2014-Oct-20 04:33N 56°02' E 016°24'  

Dump ship's entire track history